Location: Barrio de Buenos Aires
(28.4500°N, 16.2667°W)
Time: 06:17:05
(UTC+00:00)

SL-8 Rocket - Pass Details

Date: 24 January 2020
Orbit: 956 x 991 km, 82.9° (Epoch: 17 February)

Event Time Altitude Azimuth Distance (km) Brightness Sun altitude
Rises 18:55:41 0° 177° (S) 3,689 7.3 -4.5°
Reaches altitude 10° 18:58:12 10° 175° (S) 2,742 6.6 -5.1°
Maximum altitude 19:04:28 70° 93° (E) 1,046 4.0 -6.4°
Drops below altitude 10° 19:10:42 10° 11° (N) 2,741 6.1 -7.7°
Sets 19:13:14 0° 9° (N) 3,688 6.8 -8.2°
